Regional Weather Roundup
Issued by NWS

Home | Current Version | Previous Version | Graphics & Text | Print | Product List | Glossary Off
Versions: 1 2 3 4 5 6 7 8 9 10 11 12 13 14 15 16 17 18 19 20 21 22 23 24 25 26 27 28 29 30 31 32 33 34 35 36 37 38 39 40 41 42 43 44 45 46 47 48 49 50

000
ASUS43 KMKX 040611
RWRWI

WISCONSIN REGIONAL WEATHER ROUNDUP
NATIONAL WEATHER SERVICE MILWAUKEE/SULLIVAN WI
100 AM CDT WED MAY 04 2016

NOTE: "FAIR" INDICATES FEW OR NO CLOUDS BELOW 12,000 FEET WITH NO
SIGNIFICANT WEATHER AND/OR OBSTRUCTIONS TO VISIBILITY.

WIZ001-002-006>008-014>016-023>028-040700-
NORTHWEST WISCONSIN

CITY           SKY/WX    TMP DP  RH WIND       PRES   REMARKS
SUPERIOR ARPT  CLEAR     48  32  53 N8G16     29.88S
6HR MIN TEMP:  46; 6HR MAX TEMP:  65;

ASHLAND        PTCLDY    36  34  92 CALM      29.87R
6HR MIN TEMP:  36; 6HR MAX TEMP:  57;

HAYWARD        PTCLDY    45  32  60 NE13      29.86R
6HR MIN TEMP:  45; 6HR MAX TEMP:  63;

SIREN          CLEAR     49  31  50 N12G17    29.87R
6HR MIN TEMP:  49; 6HR MAX TEMP:  67;

CUMBERLAND     CLEAR     46  30  53 N18G29    29.84R
RICE LAKE      CLEAR     49  32  52 NE13      29.85R
6HR MIN TEMP:  48; 6HR MAX TEMP:  67;

CHETEK         CLEAR     49  35  56 N17G26    29.83R
6HR MIN TEMP:  49; 6HR MAX TEMP:  62;

LADYSMITH      CLEAR     46  35  66 N15G22    29.83R
6HR MIN TEMP:  44; 6HR MAX TEMP:  57;

EAU CLAIRE     CLEAR     50  37  61 N10       29.79R
6HR MIN TEMP:  46; 6HR MAX TEMP:  57;

MENOMONIE      CLEAR     51  37  59 N8        29.81R
6HR MIN TEMP:  48; 6HR MAX TEMP:  62;

NEW RICHMOND   PTCLDY    52  32  46 NE16G25   29.84R
6HR MIN TEMP:  51; 6HR MAX TEMP:  68;

OSCEOLA        PTCLDY    53  33  47 N14G22    29.88R
6HR MIN TEMP:  53; 6HR MAX TEMP:  69;

$$

WIZ003>005-009-010-017-018-040700-
NORTH CENTRAL WISCONSIN

CITY           SKY/WX    TMP DP  RH WIND       PRES   REMARKS
MANITOWISH WTR CLOUDY    40  38  91 N8        29.81R WCI  35
6HR MIN TEMP:  40; 6HR MAX TEMP:  53;

ARBOR VITAE    CLOUDY    42  37  83 N9G16     29.80R
6HR MIN TEMP:  42; 6HR MAX TEMP:  55;

WOODRUFF       CLOUDY    42  37  83 N9G16     29.80R
6HR MIN TEMP:  42; 6HR MAX TEMP:  55;

RHINELANDER    LGT RAIN  42  36  79 N8G18     29.78R
6HR MIN TEMP:  38; 6HR MAX TEMP:  51; 6HR PCP: TRACE;

EAGLE RIVER    CLOUDY    40  33  77 N7        29.78S
LAND O LAKES   CLOUDY    40  35  81 N10       29.79S WCI  34
6HR MIN TEMP:  40; 6HR MAX TEMP:  50;

PHILLIPS       CLOUDY    44  37  76 N18G26    29.80R
6HR MIN TEMP:  40; 6HR MAX TEMP:  53; 6HR PCP:  0.01;

TOMAHAWK       DRIZZLE   41  40  97 N15G28    29.79R
6HR MIN TEMP:  37; 6HR MAX TEMP:  48;

MEDFORD        PTCLDY    41  39  93 N7        29.76R
6HR MIN TEMP:  40; 6HR MAX TEMP:  50;

MERRILL        CLEAR    N/A N/A N/A N8        29.76R
$$

WIZ029-030-035-036-043>047-040700-
CENTRAL WISCONSIN

CITY           SKY/WX    TMP DP  RH WIND       PRES   REMARKS
WAUSAU         CLEAR     44  42  93 N6        29.72R
6HR MIN TEMP:  44; 6HR MAX TEMP:  54; 6HR PCP:  0.07;

MOSINEE        CLEAR     43  43 100 N6        29.74R
MARSHFIELD     CLEAR     46  42  86 N8        29.73R
6HR MIN TEMP:  45; 6HR MAX TEMP:  55; 6HR PCP:  0.07;

STEVENS POINT  CLEAR     40  40  99 N3        29.73R
6HR MIN TEMP:  40; 6HR MAX TEMP:  55; 6HR PCP:  0.08;

WAUPACA        CLEAR     45  44  95 N3        29.71S FOG
6HR MIN TEMP:  45; 6HR MAX TEMP:  63; 6HR PCP:  0.07;

WAUTOMA        CLEAR     46  44  93 N7        29.70S
6HR MIN TEMP:  45; 6HR MAX TEMP:  60; 6HR PCP:  0.12;

WISC RAPIDS    CLEAR     43  41  93 N7        29.74R
6HR MIN TEMP:  42; 6HR MAX TEMP:  62; 6HR PCP:  0.17;

CAMP DOUGLAS   FOG       39  39 100 NW3       29.72R VSB 1/2
6HR MIN TEMP:  39; 6HR MAX TEMP:  65; 6HR PCP:  0.21;

$$

WIZ011>013-019>022-031-037>040-048>050-040700-
NORTHEAST WISCONSIN

CITY           SKY/WX    TMP DP  RH WIND       PRES   REMARKS
ANTIGO         CLEAR     41  39  93 N12       29.74R
6HR MIN TEMP:  39; 6HR MAX TEMP:  46; 6HR PCP:  0.04;

SHAWANO        CLEAR     47  43  85 N15       29.72R
6HR MIN TEMP:  46; 6HR MAX TEMP:  55; 6HR PCP:  0.11;

OCONTO         CLOUDY    46  46 100 N7        29.71R
                                      6HR PCP:  0.02;

STURGEON BAY   CLOUDY    45  36  70 N16G23    29.72R
6HR MIN TEMP:  45; 6HR MAX TEMP:  52;

GREEN BAY      LGT RAIN  47  43  86 N13       29.70R
6HR MIN TEMP:  46; 6HR MAX TEMP:  58; 6HR PCP:  0.26;

MANITOWOC      CLOUDY    49  46  90 N13       29.68S
6HR MIN TEMP:  48; 6HR MAX TEMP:  65; 6HR PCP:  0.16;

APPLETON       CLOUDY    45  43  93 N12       29.68R
CLINTONVILLE   CLEAR     45  43  93 N9        29.71R
OSHKOSH        CLOUDY    46  44  93 N7        29.67F
6HR MIN TEMP:  46; 6HR MAX TEMP:  62; 6HR PCP:  0.36;

$$

WIZ032>034-041-042-053>061-040700-
SOUTHWEST WISCONSIN

CITY           SKY/WX    TMP DP  RH WIND       PRES   REMARKS
LA CROSSE      CLEAR     48  45  89 N7        29.74R
6HR MIN TEMP:  48; 6HR MAX TEMP:  69; 6HR PCP:  0.19;

SPARTA         CLEAR     42  42 100 N5        29.75R FOG
6HR MIN TEMP:  41; 6HR MAX TEMP:  66; 6HR PCP:  0.07;

VIROQUA        CLEAR     45  45 100 N6        29.72R
6HR MIN TEMP:  45; 6HR MAX TEMP:  64; 6HR PCP:  0.13;

BOSCOBEL       FOG       46  44  93 CALM      29.72R VSB 1/4
6HR MIN TEMP:  45; 6HR MAX TEMP:  68; 6HR PCP:  0.26;

PRAIRIE DU CHI PTCLDY    48  47  96 CALM      29.71R
6HR MIN TEMP:  48; 6HR MAX TEMP:  67; 6HR PCP:  0.15;

PLATTEVILLE    CLOUDY    48  47  96 NW3       29.70R
6HR MIN TEMP:  48; 6HR MAX TEMP:  65; 6HR PCP:  0.06;

$$

WIZ056-057-062-063-064-067-068-040700-
SOUTH CENTRAL WISCONSIN

CITY           SKY/WX    TMP DP  RH WIND       PRES   REMARKS
REEDSBURG      CLOUDY    46  46 100 W5        29.70R
6HR MIN TEMP:  46; 6HR MAX TEMP:  64; 6HR PCP:  0.08;

BARABOO/DELLS  CLOUDY    46  45  93 N5        29.70R
6HR MIN TEMP:  46; 6HR MAX TEMP:  64; 6HR PCP:  0.05;

LONE ROCK      PTCLDY    49  46  90 CALM      29.71R
6HR MIN TEMP:  48; 6HR MAX TEMP:  66; 6HR PCP:  0.26;

MINERAL POINT  PTCLDY    46  45  93 W5        29.70R FOG
MADISON        CLOUDY    46  45  96 NW3       29.67R FOG
6HR MIN TEMP:  46; 6HR MAX TEMP:  64; 6HR PCP:  0.07;

MIDDLETON      CLOUDY    47  47 100 NW5       29.68R
6HR MIN TEMP:  46; 6HR MAX TEMP:  64; 6HR PCP:  0.12;

WATERTOWN      CLOUDY    47  47 100 NW5       29.65S
6HR MIN TEMP:  47; 6HR MAX TEMP:  63; 6HR PCP:  0.05;

MONROE         CLOUDY    48  45  87 CALM      29.66R
JANESVILLE     LGT RAIN  50  48  93 S5G10     29.64F
$$

WIZ051-052-058>065-066-070>072-040700-
SOUTHEAST WISCONSIN

CITY           SKY/WX    TMP DP  RH WIND       PRES   REMARKS
MILWAUKEE      LGT RAIN  50  46  86 NE10      29.64F
6HR MIN TEMP:  50; 6HR MAX TEMP:  65; 6HR PCP: TRACE;

WAUKESHA       CLOUDY    46  45  93 CALM      29.65S
MILWAUKEE/TIMM CLOUDY    48  45  87 N5        29.64F
RACINE         CLOUDY    50  46  86 N13       29.65F
6HR MIN TEMP:  50; 6HR MAX TEMP:  65; 6HR PCP:  0.03;

BURLINGTON     RAIN      48  47  95 CALM      29.65F
6HR MIN TEMP:  48; 6HR MAX TEMP:  62; 6HR PCP:  0.11;

KENOSHA        LGT RAIN  52  46  80 N8        29.64F
6HR MIN TEMP:  52; 6HR MAX TEMP:  63; 6HR PCP:  0.01;

FOND DU LAC    MOCLDY    48  46  93 N7        29.67R
6HR MIN TEMP:  47; 6HR MAX TEMP:  64; 6HR PCP:  0.10;

SHEBOYGAN      MOCLDY    48  46  93 N5        29.66S
6HR MIN TEMP:  47; 6HR MAX TEMP:  63; 6HR PCP:  0.23;

WEST BEND      CLOUDY    46  45  93 NW3       29.65R
JUNEAU         CLOUDY    46  45  97 NW3       29.67S
6HR MIN TEMP:  46; 6HR MAX TEMP:  62; 6HR PCP:  0.08;

$$

LSZ147-162-040700-
LAKE SUPERIOR

STATION/POSITION TIME  TEMP    WIND        PRES    WAVE
                       AIR SEA DIR/SP/G            HT/PER
                 (UTC) (F)     (DEG/KT/KT) (MB)    (FT/S)
W MID LAKE BUOY  0550   40 37  280/  6/  8 1010.6R   2/ 4
DEVILS ISLAND    0500   46      40/  8/  9 1011.3R
SAXON HARBOR     0500   42      40/  6/  9 1010.2R
$$

LMZ867-665-643>646-040700-
LAKE MICHIGAN

STATION/POSITION TIME  TEMP    WIND        PRES    WAVE
                       AIR SEA DIR/SP/G            HT/PER
                 (UTC) (F)     (DEG/KT/KT) (MB)    (FT/S)
CHAMBERS ISLAND  0500   44     360/C1F1C2F2C3F3C4F4C5F5C6F6C7F7C8M1C9M2Ca!



USA.gov is the U.S. government's official web portal to all federal, state and local government web resources and services.